Total_Precipitation_Accumulation
1.45 1.29 2.09 2.07 1.83 1.64 1.55 1.54 1.62 1.73 1.80 1.76 1.66 1.48 1.36 1.30 1.34 1.41 1.52 1.49 1.43 1.44 1.40 1.34 1.30 1.34 1.28 1.18 1.30 1.43 1.61 1.74 1.60 1.53 1.56 1.59 1.70 1.75 1.99 2.21 2.28 2.27 2.23
1.10 1.18 1.92 1.93 1.73 1.54 1.50 1.55 1.56 1.54 1.55 1.59 1.62 1.43 1.38 1.37 1.47 1.52 1.53 1.47 1.42 1.37 1.34 1.30 1.38 1.42 1.28 1.20 1.37 1.58 1.67 1.75 1.66 1.71 1.89 1.84 1.83 1.93 2.02 2.13 2.25 2.31 2.23
0.98 1.07 1.50 1.81 1.72 1.61 1.53 1.52 1.54 1.52 1.48 1.50 1.52 1.51 1.42 1.56 1.66 1.65 1.57 1.49 1.51 1.41 1.36 1.33 1.37 1.46 1.34 1.34 1.54 1.67 1.57 1.64 1.87 2.01 2.31 2.49 2.05 1.97 1.93 2.05 2.03 2.07 2.13
0.85 0.98 1.37 1.86 1.78 1.72 1.69 1.68 1.72 1.62 1.43 1.39 1.35 1.34 1.35 1.47 1.59 1.71 1.70 1.58 1.60 1.51 1.37 1.30 1.29 1.40 1.36 1.38 1.57 1.58 1.52 1.65 1.95 2.10 2.23 2.39 2.30 2.15 2.19 2.25 2.18 2.10 2.16
0.86 0.96 1.48 1.99 1.82 1.72 1.72 1.83 1.80 1.63 1.45 1.32 1.29 1.31 1.35 1.47 1.58 1.66 1.55 1.52 1.61 1.61 1.52 1.48 1.44 1.50 1.48 1.50 1.54 1.56 1.69 1.82 1.97 1.84 1.97 2.21 2.74 2.64 2.26 2.37 2.43 2.29 2.12
0.77 0.87 1.33 1.92 1.80 1.67 1.61 1.78 1.71 1.56 1.54 1.43 1.34 1.37 1.45 1.62 1.82 1.83 1.67 1.66 1.66 1.67 1.56 1.56 1.54 1.57 1.57 1.58 1.58 1.67 1.83 1.93 1.77 1.79 1.97 2.19 2.60 2.66 2.18 2.20 2.29 2.30 2.16
0.77 0.81 1.11 1.66 1.67 1.55 1.52 1.61 1.57 1.57 1.59 1.45 1.37 1.39 1.45 1.56 1.80 1.96 1.90 1.84 1.82 1.77 1.66 1.58 1.57 1.53 1.52 1.59 1.57 1.68 1.85 1.78 1.54 1.81 1.91 2.23 2.40 2.43 2.11 2.06 2.13 2.24 2.39
0.86 0.77 0.92 1.42 1.52 1.43 1.46 1.49 1.48 1.48 1.42 1.32 1.33 1.38 1.38 1.45 1.63 1.79 1.85 1.91 1.86 1.78 1.76 1.71 1.70 1.59 1.57 1.52 1.60 1.74 1.81 1.53 1.18 1.49 1.82 2.20 2.60 2.53 2.10 2.00 2.08 2.22 2.47
1.23 1.03 0.99 1.11 1.19 1.27 1.38 1.42 1.55 1.62 1.45 1.29 1.23 1.25 1.27 1.28 1.39 1.50 1.61 1.70 1.70 1.72 1.71 1.68 1.63 1.63 1.66 1.54 1.50 1.58 1.58 1.43 1.28 1.42 1.41 2.10 2.69 2.56 2.17 1.99 1.96 2.06 2.26
1.27 1.20 1.13 1.15 1.12 1.10 1.18 1.43 1.71 1.80 1.65 1.40 1.26 1.19 1.25 1.23 1.26 1.37 1.40 1.60 1.70 1.70 1.73 1.76 1.68 1.61 1.65 1.62 1.56 1.51 1.44 1.24 1.12 1.19 1.49 2.07 2.75 2.64 2.28 1.98 1.81 1.70 1.90
1.19 1.21 1.15 1.15 1.17 1.24 1.28 1.38 1.71 1.87 1.83 1.43 1.19 1.18 1.13 1.03 1.12 1.21 1.21 1.61 1.80 1.92 1.92 1.89 1.77 1.65 1.57 1.57 1.62 1.56 1.24 1.04 1.04 1.18 1.57 2.36 2.89 2.80 2.32 1.98 1.79 1.65 1.61
1.01 1.04 1.06 1.05 1.02 1.04 1.08 1.45 1.73 1.58 1.62 1.30 1.21 1.14 1.11 1.18 1.20 1.04 1.10 1.51 1.75 1.93 1.91 1.83 1.77 1.60 1.37 1.21 1.26 1.26 1.01 0.86 0.91 1.08 1.67 2.61 3.12 3.09 2.55 2.06 1.76 1.62 1.61
0.90 0.82 0.79 0.85 0.81 0.81 0.93 1.12 1.42 1.64 1.63 1.55 1.47 1.36 1.33 1.25 1.09 1.01 1.10 1.22 1.41 1.52 1.47 1.55 1.53 1.39 1.23 1.18 1.19 1.09 0.99 0.85 0.92 1.04 1.70 2.49 3.01 3.16 2.78 2.19 1.81 1.76 1.84
0.95 0.94 0.78 0.71 0.71 0.70 0.76 0.91 1.17 1.36 1.44 1.43 1.33 1.20 1.39 1.36 1.16 1.09 1.27 1.38 1.40 1.46 1.65 1.65 1.57 1.44 1.30 1.18 1.20 1.10 1.03 0.99 0.96 1.03 1.62 2.09 2.62 2.92 2.93 2.56 2.15 1.92 1.87
0.97 1.02 0.90 0.71 0.66 0.72 0.75 0.81 0.88 1.09 1.18 1.16 1.29 1.20 1.24 1.27 1.15 1.09 1.15 1.40 1.45 1.49 1.72 1.79 1.60 1.51 1.51 1.45 1.39 1.32 1.26 1.17 1.13 1.07 1.41 1.77 2.16 2.67 3.09 3.03 2.67 2.18 2.02
0.87 0.92 0.88 0.77 0.75 0.75 0.73 0.69 0.70 0.73 0.88 0.88 0.89 0.84 1.03 1.19 1.18 1.20 1.14 1.29 1.53 1.60 1.66 1.69 1.62 1.54 1.49 1.51 1.45 1.45 1.43 1.22 1.27 1.25 1.33 1.41 1.62 1.99 2.67 3.10 2.86 2.40 2.22
0.74 0.78 0.83 0.84 0.82 0.80 0.80 0.78 0.73 0.73 0.76 0.82 0.88 0.86 0.96 1.09 1.18 1.19 1.10 1.18 1.41 1.64 1.69 1.67 1.61 1.62 1.45 1.37 1.45 1.51 1.51 1.39 1.40 1.43 1.37 1.35 1.28 1.52 2.09 2.73 2.87 2.67 2.56
0.57 0.62 0.69 0.70 0.76 0.80 0.83 0.87 0.81 0.83 0.83 0.80 0.86 0.85 0.85 1.00 1.17 1.27 1.20 1.16 1.35 1.60 1.85 1.98 1.84 1.75 1.62 1.51 1.55 1.56 1.49 1.54 1.51 1.48 1.41 1.39 1.41 1.33 1.50 1.81 2.19 2.58 2.74
0.44 0.43 0.49 0.57 0.68 0.74 0.80 0.89 0.85 0.85 0.98 1.04 0.93 0.82 0.86 0.98 1.09 1.31 1.43 1.37 1.42 1.63 1.76 1.85 1.88 1.76 1.72 1.64 1.50 1.47 1.44 1.53 1.59 1.43 1.39 1.39 1.49 1.46 1.38 1.23 1.38 1.73 2.22
0.40 0.38 0.40 0.49 0.54 0.55 0.69 0.86 0.96 0.88 0.94 1.14 1.18 1.19 1.22 1.26 1.29 1.45 1.57 1.60 1.62 1.74 1.77 1.95 2.16 1.97 1.77 1.72 1.55 1.44 1.39 1.42 1.48 1.50 1.55 1.52 1.53 1.49 1.44 1.28 1.23 1.09 1.42
0.38 0.34 0.38 0.45 0.48 0.51 0.62 0.75 0.84 0.92 1.06 1.25 1.30 1.37 1.51 1.52 1.54 1.66 1.76 1.84 1.81 1.75 1.85 2.06 2.46 2.36 2.01 1.78 1.78 1.65 1.49 1.43 1.49 1.48 1.63 1.71 1.62 1.54 1.57 1.49 1.35 1.19 1.09
0.35 0.33 0.34 0.42 0.53 0.59 0.65 0.78 0.92 1.14 1.26 1.39 1.54 1.54 1.55 1.60 1.65 1.72 1.93 2.05 2.03 2.03 2.12 2.19 2.47 2.67 2.42 2.18 2.16 2.32 2.09 1.87 1.52 1.27 1.36 1.50 1.56 1.59 1.56 1.59 1.49 1.33 1.27
0.32 0.40 0.41 0.51 0.71 0.89 0.96 1.17 1.45 1.71 1.78 1.72 1.72 1.78 1.76 1.77 1.84 1.81 1.91 2.11 2.12 2.13 2.20 2.39 2.71 3.05 3.02 2.73 2.46 2.64 2.39 2.12 2.01 1.50 1.22 1.29 1.44 1.56 1.58 1.65 1.61 1.47 1.42
0.34 0.47 0.64 0.84 1.14 1.36 1.46 1.63 1.85 1.96 2.00 1.92 1.93 1.95 1.94 1.84 1.76 1.76 1.87 2.06 2.22 2.35 2.48 2.55 2.55 2.95 3.27 3.10 2.89 2.51 2.19 2.06 2.21 2.05 1.58 1.30 1.35 1.41 1.48 1.48 1.58 1.65 1.60
0.59 0.80 1.14 1.41 1.60 1.72 1.75 1.81 2.00 2.14 2.29 2.31 2.21 2.07 1.99 1.95 1.88 1.78 1.81 1.86 1.91 2.02 2.19 2.33 2.41 2.66 2.88 3.07 3.05 2.83 2.54 2.36 1.94 1.93 2.00 1.75 1.50 1.29 1.28 1.39 1.56 1.63 1.63
1.01 1.22 1.45 1.61 1.75 1.71 1.68 1.70 1.83 2.01 2.17 2.19 2.23 2.22 2.10 1.98 1.87 1.75 1.67 1.75 1.76 1.77 1.92 2.05 2.17 2.45 2.66 2.80 2.88 2.79 2.69 2.64 2.33 2.05 1.89 1.86 1.72 1.50 1.34 1.33 1.39 1.48 1.56